Time,TemperatureF,DewpointF,PressureIn,WindDirection,WindDirectionDegrees,WindSpeedMPH,WindSpeedGustMPH,Humidity,HourlyPrecipIn,Conditions,Clouds,dailyrainin,SoftwareType,DateUTC
2013-12-09 00:14:00,19.9,18.0,29.99,NE,46,4.0,8.0,92,0.00,,,0.00,weatherlink.com 1.10,2013-12-09 05:14:00,
2013-12-09 00:29:00,19.7,18.0,29.97,ENE,66,4.0,8.0,92,0.00,,,0.00,weatherlink.com 1.10,2013-12-09 05:29:00,
2013-12-09 00:44:00,19.6,18.0,29.96,ENE,65,2.0,6.0,92,0.00,,,0.00,weatherlink.com 1.10,2013-12-09 05:44:00,
2013-12-09 00:59:00,19.8,18.0,29.95,ENE,76,2.0,6.0,92,0.00,,,0.00,weatherlink.com 1.10,2013-12-09 05:59:00,
2013-12-09 01:14:00,20.0,18.0,29.93,ENE,58,3.0,6.0,93,0.00,,,0.00,weatherlink.com 1.10,2013-12-09 06:14:00,
2013-12-09 01:29:00,20.4,19.0,29.92,ENE,59,4.0,5.0,93,0.00,,,0.00,weatherlink.com 1.10,2013-12-09 06:29:00,
2013-12-09 01:45:00,20.6,19.0,29.90,NE,47,3.0,4.0,93,0.00,,,0.00,weatherlink.com 1.10,2013-12-09 06:45:00,
2013-12-09 02:00:00,20.9,19.0,29.89,ENE,64,3.0,4.0,93,0.00,,,0.00,weatherlink.com 1.10,2013-12-09 07:00:00,
2013-12-09 02:15:00,21.6,20.0,29.88,ENE,68,3.0,6.0,93,0.00,,,0.00,weatherlink.com 1.10,2013-12-09 07:15:00,
2013-12-09 02:30:00,21.8,20.0,29.88,East,79,2.0,4.0,93,0.00,,,0.00,weatherlink.com 1.10,2013-12-09 07:30:00,
2013-12-09 02:45:00,22.0,20.0,29.87,ENE,63,3.0,6.0,93,0.00,,,0.00,weatherlink.com 1.10,2013-12-09 07:45:00,
2013-12-09 03:00:00,21.7,20.0,29.87,NNE,30,4.0,6.0,93,0.00,,,0.00,weatherlink.com 1.10,2013-12-09 08:00:00,
2013-12-09 03:15:00,21.7,20.0,29.86,NE,51,7.0,8.0,93,0.00,,,0.00,weatherlink.com 1.10,2013-12-09 08:15:00,
2013-12-09 03:30:00,21.8,20.0,29.85,NE,46,5.0,6.0,93,0.00,,,0.00,weatherlink.com 1.10,2013-12-09 08:30:00,
2013-12-09 03:45:00,21.9,20.0,29.84,NE,41,4.0,5.0,93,0.00,,,0.00,weatherlink.com 1.10,2013-12-09 08:45:00,
2013-12-09 04:00:00,21.7,20.0,29.82,NE,38,3.0,6.0,93,0.00,,,0.00,weatherlink.com 1.10,2013-12-09 09:00:00,
2013-12-09 04:15:00,21.6,20.0,29.81,NE,37,2.0,4.0,93,0.00,,,0.00,weatherlink.com 1.10,2013-12-09 09:15:00,
2013-12-09 04:30:00,21.6,20.0,29.80,ENE,58,3.0,5.0,93,0.00,,,0.00,weatherlink.com 1.10,2013-12-09 09:30:00,
2013-12-09 04:45:00,21.6,20.0,29.79,NNE,29,2.0,5.0,93,0.00,,,0.00,weatherlink.com 1.10,2013-12-09 09:45:00,
2013-12-09 05:00:00,21.6,20.0,29.77,ENE,58,4.0,6.0,93,0.00,,,0.00,weatherlink.com 1.10,2013-12-09 10:00:00,
2013-12-09 05:15:00,21.8,20.0,29.75,NE,40,6.0,8.0,93,0.00,,,0.00,weatherlink.com 1.10,2013-12-09 10:15:00,
2013-12-09 05:30:00,21.8,20.0,29.74,NE,46,3.0,5.0,93,0.00,,,0.00,weatherlink.com 1.10,2013-12-09 10:30:00,
2013-12-09 05:45:00,22.2,21.0,29.73,NNE,26,5.0,6.0,93,0.00,,,0.00,weatherlink.com 1.10,2013-12-09 10:45:00,
2013-12-09 06:00:00,22.1,20.0,29.71,ENE,72,1.0,6.0,93,0.00,,,0.00,weatherlink.com 1.10,2013-12-09 11:00:00,
2013-12-09 06:15:00,22.2,21.0,29.70,NE,44,2.0,6.0,93,0.00,,,0.00,weatherlink.com 1.10,2013-12-09 11:15:00,
2013-12-09 06:30:00,22.2,21.0,29.70,NE,46,2.0,4.0,93,0.00,,,0.00,weatherlink.com 1.10,2013-12-09 11:30:00,
2013-12-09 06:45:00,22.3,21.0,29.70,NNE,26,6.0,7.0,93,0.00,,,0.00,weatherlink.com 1.10,2013-12-09 11:45:00,
2013-12-09 07:00:00,22.3,21.0,29.69,NNE,31,5.0,8.0,93,0.00,,,0.00,weatherlink.com 1.10,2013-12-09 12:00:00,
2013-12-09 07:16:00,22.3,21.0,29.67,NE,39,5.0,7.0,93,0.00,,,0.00,weatherlink.com 1.10,2013-12-09 12:16:00,
2013-12-09 07:31:00,22.3,21.0,29.67,ENE,58,3.0,7.0,93,0.00,,,0.00,weatherlink.com 1.10,2013-12-09 12:31:00,
2013-12-09 07:46:00,22.3,21.0,29.66,NNE,20,4.0,5.0,94,0.00,,,0.00,weatherlink.com 1.10,2013-12-09 12:46:00,
2013-12-09 08:01:00,22.3,21.0,29.65,NE,36,4.0,6.0,94,0.00,,,0.00,weatherlink.com 1.10,2013-12-09 13:01:00,
2013-12-09 08:16:00,22.3,21.0,29.66,North,11,1.0,5.0,94,0.00,,,0.00,weatherlink.com 1.10,2013-12-09 13:16:00,
2013-12-09 08:31:00,22.5,21.0,29.66,NNE,23,2.0,4.0,94,0.00,,,0.00,weatherlink.com 1.10,2013-12-09 13:31:00,
2013-12-09 08:46:00,22.4,21.0,29.65,NE,49,0.0,3.0,94,0.00,,,0.00,weatherlink.com 1.10,2013-12-09 13:46:00,
2013-12-09 09:01:00,22.5,21.0,29.65,East,91,0.0,2.0,94,0.00,,,0.00,weatherlink.com 1.10,2013-12-09 14:01:00,
2013-12-09 09:16:00,22.6,21.0,29.65,SSE,157,0.0,1.0,93,0.00,,,0.00,weatherlink.com 1.10,2013-12-09 14:16:00,
2013-12-09 09:31:00,22.6,21.0,29.65,SW,219,0.0,1.0,93,0.00,,,0.00,weatherlink.com 1.10,2013-12-09 14:31:00,
2013-12-09 09:46:00,22.9,21.0,29.64,SW,219,0.0,0.0,93,0.00,,,0.00,weatherlink.com 1.10,2013-12-09 14:46:00,
2013-12-09 10:01:00,23.1,21.0,29.64,SW,219,0.0,1.0,93,0.00,,,0.00,weatherlink.com 1.10,2013-12-09 15:01:00,
2013-12-09 10:16:00,23.7,22.0,29.63,NNE,24,0.0,2.0,93,0.00,,,0.00,weatherlink.com 1.10,2013-12-09 15:16:00,
2013-12-09 10:31:00,24.3,23.0,29.64,NW,321,0.0,0.0,93,0.00,,,0.00,weatherlink.com 1.10,2013-12-09 15:31:00,
2013-12-09 10:46:00,24.9,23.0,29.64,NW,323,0.0,0.0,92,0.00,,,0.00,weatherlink.com 1.10,2013-12-09 15:46:00,
2013-12-09 11:01:00,25.7,23.0,29.63,SE,132,0.0,1.0,90,0.00,,,0.00,weatherlink.com 1.10,2013-12-09 16:01:00,
2013-12-09 11:16:00,25.5,23.0,29.63,SE,125,2.0,3.0,89,0.00,,,0.00,weatherlink.com 1.10,2013-12-09 16:16:00,
2013-12-09 11:31:00,25.7,23.0,29.63,SSW,207,1.0,3.0,90,0.00,,,0.00,weatherlink.com 1.10,2013-12-09 16:31:00,
2013-12-09 11:46:00,27.4,24.0,29.61,SW,221,2.0,4.0,88,0.00,,,0.00,weatherlink.com 1.10,2013-12-09 16:46:00,
2013-12-09 12:01:00,28.1,25.0,29.62,WSW,246,1.0,3.0,87,0.00,,,0.00,weatherlink.com 1.10,2013-12-09 17:01:00,
2013-12-09 12:16:00,27.3,25.0,29.61,SW,220,2.0,6.0,89,0.00,,,0.00,weatherlink.com 1.10,2013-12-09 17:16:00,
2013-12-09 12:31:00,27.4,25.0,29.61,WNW,291,1.0,7.0,90,0.00,,,0.00,weatherlink.com 1.10,2013-12-09 17:31:00,
2013-12-09 12:46:00,28.0,25.0,29.60,SSW,201,1.0,9.0,89,0.00,,,0.00,weatherlink.com 1.10,2013-12-09 17:46:00,
2013-12-09 13:01:00,28.1,25.0,29.59,West,259,1.0,8.0,86,0.00,,,0.00,weatherlink.com 1.10,2013-12-09 18:01:00,
2013-12-09 13:16:00,27.7,23.0,29.59,SW,224,4.0,16.0,83,0.00,,,0.00,weatherlink.com 1.10,2013-12-09 18:16:00,
2013-12-09 13:31:00,27.1,23.0,29.59,SW,222,1.0,10.0,83,0.00,,,0.00,weatherlink.com 1.10,2013-12-09 18:31:00,
2013-12-09 13:46:00,26.8,22.0,29.59,SSW,195,5.0,13.0,81,0.00,,,0.00,weatherlink.com 1.10,2013-12-09 18:46:00,
2013-12-09 14:01:00,26.7,21.0,29.59,SW,218,4.0,11.0,80,0.00,,,0.00,weatherlink.com 1.10,2013-12-09 19:01:00,
2013-12-09 14:16:00,26.3,20.0,29.59,SW,215,12.0,12.0,78,0.00,,,0.00,weatherlink.com 1.10,2013-12-09 19:16:00,
2013-12-09 14:32:00,25.5,20.0,29.59,SW,225,14.0,14.0,78,0.00,,,0.00,weatherlink.com 1.10,2013-12-09 19:32:00,
2013-12-09 14:47:00,24.9,19.0,29.59,SW,218,6.0,14.0,77,0.00,,,0.00,weatherlink.com 1.10,2013-12-09 19:47:00,
2013-12-09 15:02:00,24.7,19.0,29.58,WNW,297,2.0,9.0,78,0.00,,,0.00,weatherlink.com 1.10,2013-12-09 20:02:00,
2013-12-09 15:17:00,24.5,19.0,29.59,West,278,4.0,14.0,79,0.00,,,0.00,weatherlink.com 1.10,2013-12-09 20:17:00,
2013-12-09 15:32:00,24.2,19.0,29.59,East,94,4.0,12.0,82,0.00,,,0.00,weatherlink.com 1.10,2013-12-09 20:32:00,
2013-12-09 15:47:00,24.2,19.0,29.60,WSW,258,3.0,11.0,81,0.00,,,0.00,weatherlink.com 1.10,2013-12-09 20:47:00,
2013-12-09 16:02:00,23.1,18.0,29.60,South,174,7.0,17.0,79,0.00,,,0.00,weatherlink.com 1.10,2013-12-09 21:02:00,
2013-12-09 16:17:00,22.2,16.0,29.61,West,264,3.0,14.0,78,0.00,,,0.00,weatherlink.com 1.10,2013-12-09 21:17:00,
2013-12-09 16:32:00,21.4,15.0,29.62,SSW,199,5.0,13.0,77,0.00,,,0.00,weatherlink.com 1.10,2013-12-09 21:32:00,
2013-12-09 16:47:00,20.6,14.0,29.63,SW,228,3.0,11.0,77,0.00,,,0.00,weatherlink.com 1.10,2013-12-09 21:47:00,
2013-12-09 17:02:00,19.9,14.0,29.64,West,266,1.0,11.0,78,0.00,,,0.00,weatherlink.com 1.10,2013-12-09 22:02:00,
2013-12-09 17:17:00,19.4,13.0,29.64,SSE,155,1.0,16.0,77,0.00,,,0.00,weatherlink.com 1.10,2013-12-09 22:17:00,
2013-12-09 17:32:00,18.6,12.0,29.65,SSW,207,3.0,13.0,76,0.00,,,0.00,weatherlink.com 1.10,2013-12-09 22:32:00,
2013-12-09 17:47:00,18.5,12.0,29.65,NW,316,0.0,12.0,77,0.00,,,0.00,weatherlink.com 1.10,2013-12-09 22:47:00,
2013-12-09 18:02:00,18.1,12.0,29.65,SW,214,2.0,9.0,78,0.00,,,0.00,weatherlink.com 1.10,2013-12-09 23:02:00,
2013-12-09 18:17:00,17.6,11.0,29.66,SSW,210,2.0,9.0,75,0.00,,,0.00,weatherlink.com 1.10,2013-12-09 23:17:00,
2013-12-09 18:32:00,17.1,10.0,29.67,WNW,291,4.0,10.0,75,0.00,,,0.00,weatherlink.com 1.10,2013-12-09 23:32:00,
2013-12-09 18:47:00,16.4,10.0,29.68,WSW,250,4.0,7.0,75,0.00,,,0.00,weatherlink.com 1.10,2013-12-09 23:47:00,
2013-12-09 19:02:00,15.6,9.0,29.68,SW,235,2.0,6.0,76,0.00,,,0.00,weatherlink.com 1.10,2013-12-10 00:02:00,
2013-12-09 19:17:00,15.3,9.0,29.69,West,279,0.0,8.0,75,0.00,,,0.00,weatherlink.com 1.10,2013-12-10 00:17:00,
2013-12-09 19:32:00,14.7,8.0,29.69,NNW,340,1.0,9.0,75,0.00,,,0.00,weatherlink.com 1.10,2013-12-10 00:32:00,
2013-12-09 19:47:00,14.3,9.0,29.69,South,169,10.0,13.0,78,0.00,,,0.00,weatherlink.com 1.10,2013-12-10 00:47:00,
2013-12-09 20:02:00,13.9,8.0,29.70,SSW,207,3.0,13.0,78,0.00,,,0.00,weatherlink.com 1.10,2013-12-10 01:02:00,
2013-12-09 20:17:00,13.5,7.0,29.71,SSW,204,5.0,14.0,76,0.00,,,0.00,weatherlink.com 1.10,2013-12-10 01:17:00,
2013-12-09 20:32:00,13.1,7.0,29.72,West,276,5.0,13.0,76,0.00,,,0.00,weatherlink.com 1.10,2013-12-10 01:32:00,
2013-12-09 20:47:00,12.4,6.0,29.73,WSW,258,7.0,13.0,76,0.00,,,0.00,weatherlink.com 1.10,2013-12-10 01:47:00,
2013-12-09 21:03:00,11.8,5.0,29.73,West,262,2.0,12.0,75,0.00,,,0.00,weatherlink.com 1.10,2013-12-10 02:03:00,
2013-12-09 21:18:00,11.4,5.0,29.74,SSE,150,3.0,13.0,74,0.00,,,0.00,weatherlink.com 1.10,2013-12-10 02:18:00,
2013-12-09 21:33:00,10.9,4.0,29.74,SE,135,1.0,11.0,73,0.00,,,0.00,weatherlink.com 1.10,2013-12-10 02:33:00,
2013-12-09 21:48:00,10.4,4.0,29.75,SE,139,4.0,12.0,74,0.00,,,0.00,weatherlink.com 1.10,2013-12-10 02:48:00,
2013-12-09 22:03:00,10.0,3.0,29.76,SW,236,4.0,11.0,74,0.00,,,0.00,weatherlink.com 1.10,2013-12-10 03:03:00,
2013-12-09 22:17:00,9.5,3.0,29.77,West,276,6.0,12.0,74,0.00,,,0.00,weatherlink.com 1.10,2013-12-10 03:17:00,
2013-12-09 22:33:00,9.0,3.0,29.77,SW,218,5.0,12.0,75,0.00,,,0.00,weatherlink.com 1.10,2013-12-10 03:33:00,
2013-12-09 22:47:00,8.7,2.0,29.78,West,261,4.0,11.0,75,0.00,,,0.00,weatherlink.com 1.10,2013-12-10 03:47:00,
2013-12-09 23:03:00,8.2,2.0,29.78,SW,232,0.0,10.0,75,0.00,,,0.00,weatherlink.com 1.10,2013-12-10 04:03:00,
2013-12-09 23:18:00,7.9,2.0,29.79,WNW,282,3.0,17.0,75,0.00,,,0.00,weatherlink.com 1.10,2013-12-10 04:18:00,
2013-12-09 23:33:00,7.6,1.0,29.80,SSE,156,6.0,9.0,75,0.00,,,0.00,weatherlink.com 1.10,2013-12-10 04:33:00,
2013-12-09 23:48:00,7.1,1.0,29.80,WNW,282,1.0,10.0,75,0.00,,,0.00,weatherlink.com 1.10,2013-12-10 04:48:00,